Location: Fours
(44.3167°N, 6.7000°E)
Time: 22:50:21
(UTC+00:00)

CZ-4C R/B - Pass Details

Date: 16 October 2021
Orbit: 403 x 482 km, 97.7° (Epoch: 26 November)

Event Time Altitude Azimuth Distance (km) Brightness Sun altitude
Rises 17:16:46 0° 23° (NNE) 2,506 6.4 -6.0°
Reaches altitude 10° 17:19:03 10° 35° (NE) 1,611 5.3 -6.4°
Maximum altitude 17:22:04 28° 96° (E) 878 3.8 -7.0°
Drops below altitude 10° 17:25:00 10° 158° (SSE) 1,558 5.5 -7.5°
Sets 17:27:10 0° 170° (S) 2,406 6.6 -7.9°
